Regional Weather Roundup
Issued by NWS

Home | Current Version | Previous Version | Text Only | Print | Product List | Glossary On
Versions: 1 2 3 4 5 6 7 8 9 10 11 12 13 14 15 16 17 18 19 20 21 22 23 24 25 26 27 28 29 30 31 32 33 34 35 36 37 38 39 40 41 42 43 44 45 46 47 48 49 50
000
ASUS43 KBIS 240510
RWRND

NORTH DAKOTA REGIONAL WEATHER ROUNDUP
NATIONAL WEATHER SERVICE BISMARCK ND
1200 AM CDT THU AUG 24 2017

NOTE: "FAIR" INDICATES FEW OR NO CLOUDS BELOW 12,000 FEET WITH NO
SIGNIFICANT WEATHER AND/OR OBSTRUCTIONS TO VISIBILITY.


NDZ001>003-009>011-017-240600-
NORTHWEST NORTH DAKOTA

CITY           SKY/WX    TMP DP  RH WIND       PRES   REMARKS
WILLISTON      CLEAR     69  51  52 VRB3      29.95R
MINOT          CLEAR     59  53  80 E13       30.00R
MINOT AFB      CLEAR     59  51  76 E13       29.99R
$$

NDZ018>021-031>035-040>046-240600-
SOUTHWEST NORTH DAKOTA

CITY           SKY/WX    TMP DP  RH WIND       PRES   REMARKS
BISMARCK       CLEAR     63  57  81 SE3       29.95S
DICKINSON      CLEAR     65  54  67 S9        29.95S
GARRISON         N/A     61  57  87 NE8       29.95R
HETTINGER ARPT CLEAR     66  56  70 SE10      29.99S
$$

NDZ004>008-012>016-024-026-027-054-240600-
NORTHEAST NORTH DAKOTA

CITY           SKY/WX    TMP DP  RH WIND       PRES   REMARKS
GRAND FORKS    CLOUDY    57  55  93 NE6       30.08R
GRND FRKS AFB  CLOUDY    55  53  95 N5        30.08S
DEVILS LAKE    CLOUDY    56  51  84 E13       30.07R
$$

NDZ022-023-025-028>030-036>039-047>053-240600-
SOUTHEAST NORTH DAKOTA

CITY           SKY/WX    TMP DP  RH WIND       PRES   REMARKS
FARGO          CLOUDY    59  54  83 E8        30.03F
JAMESTOWN      CLEAR     57  50  77 E12       30.01R
$$




USA.gov is the U.S. government's official web portal to all federal, state and local government web resources and services.